Wind_Speed
9 11 11 11 11 11 12 12 12 12 12 12 11 10 10 8 6 7 7 8 9 10 11 12 13 13 13 12 11 9 7 6 6
10 12 13 13 12 13 12 12 11 11 12 12 13 12 12 11 8 9 8 9 9 9 11 12 12 12 12 11 10 9 7 6 6
12 13 15 14 14 13 13 11 11 11 11 12 12 12 13 12 12 11 9 10 10 10 11 11 12 12 11 10 10 9 9 8 8
14 14 15 15 15 13 13 12 12 12 12 12 12 13 14 13 13 13 12 12 12 12 13 13 13 13 12 10 9 9 9 10 10
16 15 14 15 14 13 13 12 13 13 13 13 13 13 13 14 13 13 14 14 15 14 14 14 14 14 14 12 11 11 11 10 10
13 13 13 14 14 14 13 13 13 14 15 15 15 14 15 15 14 14 15 16 17 17 17 17 17 17 16 15 14 13 13 13 13
11 13 14 15 16 15 14 13 13 14 15 15 16 16 16 16 17 16 17 18 19 19 20 20 20 20 19 17 16 15 14 14 15
13 15 15 17 17 16 15 15 14 14 15 15 16 16 17 18 18 18 19 20 21 22 22 22 22 23 22 22 20 19 18 18 18
17 18 17 18 18 17 17 17 17 16 17 16 16 17 18 19 20 20 22 22 24 25 26 26 26 25 25 25 25 24 24 23 23
16 18 18 19 19 18 18 18 19 19 19 19 19 18 18 20 21 22 23 23 25 27 29 30 30 29 28 28 28 28 28 27 27
18 17 17 17 17 18 18 19 19 20 21 21 22 21 21 22 24 25 25 26 26 27 30 32 33 33 33 32 32 32 32 32 31
20 20 20 22 20 19 19 19 21 21 23 23 24 24 24 25 25 27 27 28 28 28 29 32 34 35 36 37 36 37 37 37 36
22 22 22 23 25 26 24 23 24 25 26 25 26 27 27 27 26 27 28 28 29 30 31 33 34 36 36 38 39 41 43 43 42
28 28 28 28 29 30 29 28 28 29 30 30 30 30 30 29 29 27 27 27 28 30 30 32 34 35 36 38 41 43 46 47 47
30 30 28 29 30 29 30 31 32 33 34 36 35 34 33 32 32 30 28 26 26 27 28 30 32 34 37 39 41 44 46 48 49
27 29 30 30 30 29 31 33 36 36 37 41 39 39 37 35 33 33 30 29 28 27 27 27 28 29 32 36 39 41 44 46 48
28 30 31 31 33 33 35 37 39 41 39 43 45 48 42 36 32 34 34 32 32 30 29 28 28 29 30 31 34 37 41 43 44
33 35 36 37 37 38 39 41 42 44 41 41 44 50 52 46 37 36 37 36 35 32 32 32 31 31 33 31 30 31 36 41 44
36 36 36 36 38 39 40 42 43 43 44 42 44 46 49 51 53 42 38 39 37 37 37 36 34 34 35 33 32 31 32 37 41
35 37 38 39 39 40 39 40 42 43 45 44 44 47 48 49 51 55 43 43 41 41 42 40 37 37 37 36 33 32 33 34 38
Wind_Direction
298 302 302 299 300 301 301 305 309 313 314 313 308 306 308 316 302 275 280 288 306 324 327 324 327 332 333 333 332 330 322 317 314
294 295 294 295 300 301 301 307 310 312 315 313 310 311 312 316 300 284 284 292 304 316 319 320 325 328 330 330 326 319 314 312 301
290 292 292 298 298 300 303 308 310 312 309 307 311 317 314 312 301 293 284 286 296 307 309 312 315 319 322 326 327 321 315 310 303
288 288 293 294 296 298 300 306 305 308 311 310 313 313 307 306 300 295 293 291 290 296 303 308 312 311 312 316 320 318 316 316 311
286 291 294 292 293 293 300 303 305 307 309 308 307 304 301 300 299 294 293 292 291 290 292 298 301 301 303 306 312 312 315 317 318
296 297 293 293 294 295 300 302 306 311 311 308 302 301 297 296 298 296 293 292 291 291 291 292 292 294 297 300 302 305 307 310 311
296 295 297 304 303 304 304 302 307 308 308 304 299 297 296 298 297 297 292 291 290 288 287 288 288 289 290 290 290 293 295 298 300
305 304 306 304 301 302 302 303 303 306 304 300 298 296 299 298 293 292 289 288 287 286 286 284 284 284 285 285 285 285 286 287 289
306 301 302 300 298 296 295 298 299 302 301 299 301 302 302 300 297 292 288 285 283 283 283 282 281 281 282 282 283 283 282 283 286
309 302 302 303 304 302 299 298 298 298 297 300 300 300 301 299 299 295 290 286 281 280 280 280 280 280 280 280 281 281 281 282 283
332 333 330 319 311 307 303 303 303 300 298 297 296 294 295 296 297 294 291 288 285 281 278 278 278 278 278 278 278 279 279 279 281
332 334 337 337 324 309 309 312 307 304 300 295 293 293 295 292 291 291 290 286 284 281 279 277 275 275 275 275 276 277 277 277 278
314 316 316 314 313 315 307 308 309 309 304 297 294 292 292 290 291 289 290 289 286 281 278 275 274 274 274 274 273 274 274 275 276
302 303 304 302 300 300 306 305 303 303 303 302 296 291 288 288 284 286 289 289 287 285 281 277 274 273 272 271 270 269 269 271 272
289 292 296 294 290 291 293 294 295 295 294 291 289 288 287 286 283 282 283 285 286 288 285 280 277 275 272 270 269 270 270 269 269
283 284 290 290 285 285 287 290 290 292 288 285 288 285 283 284 284 279 278 279 284 285 286 286 283 279 277 275 274 273 272 272 272
288 287 288 288 283 281 282 281 285 285 285 286 286 286 283 282 284 277 271 271 277 283 285 285 284 284 281 281 278 277 275 273 272
289 289 290 290 287 285 284 283 283 286 283 281 281 284 287 289 281 277 270 269 272 277 280 280 280 282 284 284 285 286 281 275 271
287 287 288 288 287 286 284 283 283 282 282 280 280 278 282 283 285 279 271 269 270 273 275 276 276 274 278 282 286 288 288 280 272
292 293 292 291 288 286 283 281 281 279 280 281 280 280 279 277 280 284 275 269 269 270 273 273 272 273 275 280 281 286 287 287 274
Height
3140 3140 3140 3138 3137 3136 3135 3134 3133 3132 3131 3130 3128 3127 3125 3125 3124 3124 3124 3123 3121 3120 3119 3118 3116 3114 3113 3111 3109 3107 3106 3105 3105
3139 3138 3137 3136 3134 3134 3133 3132 3131 3130 3129 3127 3127 3126 3125 3124 3123 3123 3122 3121 3119 3118 3117 3116 3115 3113 3111 3109 3107 3106 3105 3104 3103
3137 3136 3135 3133 3132 3131 3131 3130 3128 3127 3126 3125 3125 3123 3123 3123 3122 3121 3120 3119 3117 3116 3115 3114 3112 3111 3110 3108 3106 3105 3104 3103 3101
3135 3134 3132 3131 3130 3129 3128 3126 3126 3125 3124 3122 3121 3121 3120 3121 3120 3119 3118 3117 3115 3114 3114 3112 3111 3110 3109 3107 3105 3104 3102 3101 3100
3132 3131 3130 3129 3127 3126 3126 3125 3124 3123 3121 3119 3118 3118 3118 3117 3117 3116 3115 3114 3113 3112 3111 3110 3109 3108 3107 3105 3104 3102 3101 3100 3098
3129 3129 3127 3126 3125 3125 3123 3122 3121 3120 3118 3117 3116 3115 3114 3114 3113 3112 3111 3111 3110 3109 3109 3108 3107 3106 3104 3103 3102 3100 3099 3098 3096
3126 3125 3124 3124 3124 3122 3121 3120 3119 3117 3116 3115 3113 3111 3110 3110 3108 3108 3107 3106 3106 3105 3105 3104 3104 3103 3102 3100 3098 3097 3096 3095 3093
3125 3123 3122 3122 3121 3120 3119 3118 3116 3114 3113 3111 3109 3108 3106 3105 3104 3104 3103 3102 3101 3100 3100 3099 3099 3098 3097 3096 3095 3094 3092 3091 3089
3123 3122 3120 3120 3118 3116 3115 3114 3112 3110 3109 3107 3105 3103 3102 3101 3100 3099 3098 3097 3096 3095 3094 3094 3093 3092 3092 3091 3090 3089 3088 3086 3085
3120 3118 3117 3116 3114 3112 3110 3109 3107 3106 3105 3103 3102 3100 3098 3096 3095 3094 3093 3092 3091 3090 3089 3088 3087 3086 3085 3084 3083 3083 3082 3081 3080
3117 3115 3113 3111 3110 3108 3107 3105 3103 3102 3100 3098 3097 3095 3093 3092 3090 3089 3087 3085 3084 3082 3081 3080 3080 3079 3078 3076 3075 3075 3074 3073 3073
3113 3111 3110 3108 3106 3104 3102 3100 3098 3096 3094 3093 3092 3091 3089 3087 3084 3082 3080 3078 3077 3075 3074 3072 3071 3070 3069 3068 3067 3066 3066 3066 3065
3108 3106 3105 3103 3102 3100 3097 3095 3093 3091 3089 3087 3085 3083 3082 3079 3077 3075 3073 3071 3069 3067 3065 3064 3062 3061 3060 3059 3058 3057 3056 3055 3055
3103 3101 3100 3099 3097 3094 3092 3090 3087 3085 3083 3080 3078 3076 3074 3072 3070 3068 3065 3063 3061 3059 3057 3055 3053 3052 3051 3049 3048 3046 3045 3044 3043
3096 3095 3094 3092 3089 3087 3085 3082 3079 3077 3074 3070 3068 3066 3065 3063 3061 3060 3058 3055 3053 3050 3047 3046 3044 3042 3040 3039 3037 3036 3034 3033 3032
3090 3088 3087 3085 3082 3080 3078 3075 3071 3069 3066 3059 3058 3055 3054 3053 3052 3050 3048 3047 3045 3042 3040 3037 3034 3033 3031 3029 3028 3026 3024 3021 3021
3084 3082 3079 3077 3074 3072 3070 3066 3063 3059 3058 3052 3046 3039 3042 3043 3043 3040 3038 3037 3034 3034 3032 3029 3026 3024 3021 3020 3018 3016 3013 3011 3009
3079 3076 3073 3070 3067 3065 3062 3059 3055 3049 3049 3046 3040 3030 3024 3027 3032 3029 3027 3025 3024 3023 3021 3020 3017 3014 3011 3010 3008 3006 3003 3001 2998
3070 3066 3063 3061 3057 3055 3052 3048 3044 3040 3036 3035 3031 3026 3021 3014 3008 3017 3016 3014 3013 3011 3010 3007 3006 3003 3000 2998 2997 2996 2993 2991 2988
3063 3059 3055 3052 3048 3044 3041 3037 3033 3030 3025 3023 3020 3015 3012 3009 3002 2993 3000 2999 3000 2998 2996 2996 2994 2992 2988 2987 2986 2984 2982 2979 2977